RADARSAT-2

Last updated on Mon Jun 22 2026 00:02:51 GMT+0000 (Coordinated Universal Time)

1 32382U 07061A 26172.51594895 .00000089 00000+0 51486-4 0 9990 2 32382 98.5779 179.3870 0001308 84.3473 275.7858 14.29982678966572
UTC large
Height (km)
Speed (km/s)
/
Latitude / Longitude
Inclination (degrees)
Orbital Period (minutes)
Azimuth
Elevation
Range (km)
Doppler Factor

Next 0 passes for location: London (51.5072 / 0.1276)

No passes found over London.
RADARSAT-2